Flag for Belgium Weather past 2 weeks in Leuven, Belgium

Now
52 °F

Light rain. Passing clouds.


Feels Like: 46 °F
Forecast: 42 / 46 °F
Wind: 17 mph from Southwest

Location: Brussels National Airport

Current Time: Dec 19, 2014 at 3:20:21 AM

Latest Report: Dec 19, 2014 at 2:50 AM


Visibility: N/A

Pressure: 29.92 "Hg

Humidity: 88%

Dew point: 48 °F

Location of LeuvenLocation

Historic Weather in Leuven — Graph

°F

Leuven temperature yesterday

Maximum temperature yesterday: 54 °F (at 10:20 AM)
Minimum temperature yesterday: 50 °F (at 12:20 AM)
Average temperature yesterday: 52 °F

Past Weeks' High & Low Weather Summary

 TemperatureHumidityPressure
High54 °F (Dec 18, 10:20 AM)100% (Dec 6, 5:50 AM)30.36 "Hg (Dec 6, 5:50 AM)
Low28 °F (Dec 4, 1:20 AM)61% (Dec 10, 4:20 PM)29.42 "Hg (Dec 12, 11:50 AM)
Average41 °F85%29.97 "Hg
* Reported Dec 4 1:20 AM — Dec 19 1:50 AM, Leuven, Weather by CustomWeather, © 2014

Note: Actual official high and low records may vary slightly from our data, if they occured in-between our weather recording intervals... More about our weather records

Advertising

Leuven weather history for previous 24 hours

 ConditionsComfort  
Time TempWeatherWind HumidityBarometerVisibility
1:50 AM
Dec 19
52 °FLight rain. Passing clouds.18 mph88%29.95 "HgN/A
1:20 AM52 °FRain. Passing clouds.21 mph88%29.95 "Hg4 mi
12:50 AM52 °FRain. Passing clouds.21 mph88%29.95 "Hg4 mi
12:20 AM52 °FRain. Passing clouds.22 mph94%29.95 "Hg3 mi
11:50 PM
Dec 18
54 °FLight rain. Passing clouds.23 mph88%29.95 "HgN/A
11:20 PM54 °FPassing clouds.24 mph82%29.95 "HgN/A
10:50 PM52 °FPartly cloudy.21 mph94%29.95 "HgN/A
10:20 PM52 °FLight rain. Passing clouds.24 mph94%29.95 "Hg6 mi
9:50 PM52 °FPassing clouds.21 mph94%29.95 "Hg4 mi
9:20 PM52 °FPassing clouds.20 mph94%29.95 "Hg4 mi
8:50 PM52 °FPassing clouds.22 mph94%29.95 "Hg4 mi
8:20 PM54 °FLight rain. Passing clouds.25 mph88%29.95 "HgN/A
7:50 PM52 °FPartly cloudy.22 mph94%29.92 "Hg3 mi
7:20 PM54 °FPassing clouds.23 mph88%29.92 "Hg4 mi
6:50 PM54 °FPassing clouds.28 mph82%29.92 "HgN/A
6:20 PM54 °FPassing clouds.23 mph82%29.92 "HgN/A
5:50 PM54 °FPassing clouds.25 mph82%29.92 "HgN/A
5:20 PM54 °FPartly cloudy.24 mph82%29.92 "HgN/A
4:50 PM54 °FPassing clouds.26 mph88%29.92 "HgN/A
4:20 PM54 °FPartly sunny.24 mph88%29.92 "HgN/A
3:50 PM54 °FPartly sunny.22 mph88%29.92 "HgN/A
3:20 PM54 °FPartly sunny.20 mph88%29.89 "HgN/A
2:50 PM54 °FPartly sunny.21 mph94%29.89 "HgN/A
2:20 PM54 °FPartly sunny.17 mph88%29.89 "HgN/A
1:50 PM54 °FPartly sunny.17 mph88%29.89 "HgN/A
1:20 PM54 °FPartly sunny.17 mph94%29.89 "HgN/A
12:50 PM54 °FDrizzle. Partly sunny.17 mph94%29.89 "Hg5 mi
12:20 PM54 °FDrizzle. Partly sunny.14 mph88%29.89 "Hg3 mi
11:50 AM54 °FDrizzle. Partly sunny.14 mph88%29.89 "Hg2 mi
11:20 AM54 °FDrizzle. Partly sunny.13 mph88%29.89 "Hg2 mi
10:50 AM54 °FFog.14 mph88%29.89 "Hg3 mi
10:20 AM54 °FDrizzle. Partly sunny.14 mph88%29.89 "Hg2 mi
9:50 AM52 °FDrizzle. Partly sunny.15 mph94%29.89 "Hg1 mi
9:20 AM52 °FDrizzle. Broken clouds.14 mph94%29.86 "Hg2 mi
8:50 AM52 °FDrizzle. Partly sunny.13 mph94%29.86 "Hg1 mi
8:20 AM52 °FPartly cloudy.13 mph94%29.86 "HgN/A
7:50 AM52 °FPartly cloudy.12 mph94%29.86 "HgN/A
7:20 AM52 °FPartly cloudy.13 mph94%29.83 "Hg2 mi
6:50 AM52 °FPassing clouds.12 mph88%29.83 "Hg5 mi
6:20 AM52 °FPassing clouds.13 mph88%29.83 "Hg4 mi
5:50 AM52 °FPartly cloudy.13 mph88%29.83 "HgN/A
5:20 AM52 °FPassing clouds.12 mph94%29.83 "HgN/A
4:20 AM52 °FPassing clouds.14 mph88%29.83 "Hg4 mi
3:50 AM52 °FFog.13 mph88%29.83 "Hg3 mi
3:20 AM52 °FPassing clouds.13 mph88%29.83 "Hg4 mi
Weather by CustomWeather, © 2014

See weather overviewHow to use our weather pages